Location: Rounton
(54.4000°N, 1.3500°W)
Time: 13:25:30
(UTC+00:00)

Transit 2A - Pass Details

Date: 03 December 2021
Orbit: 591 x 967 km, 66.7° (Epoch: 17 January)

Event Time Altitude Azimuth Distance (km) Brightness Sun altitude
Rises 06:07:33 0° 307° (NW) 3,597 - -16.1°
Reaches altitude 10° 06:10:22 10° 317° (NW) 2,683 - -15.7°
Exits shadow 06:11:30 15° 324° (NW) 2,344 8.0 -15.5°
Maximum altitude 06:16:02 33° 20° (NNE) 1,575 7.6 -14.9°
Drops below altitude 10° 06:21:44 10° 84° (E) 2,700 9.9 -14.1°
Sets 06:24:34 0° 93° (E) 3,623 11.1 -13.7°
